Consulta los datos en tiempo real de la estación municipal de St. Hilari Sacalm
| Hora UTC | 11:05 |
|---|---|
| Temperatura | 11.9 ºC |
| Humedad | 83.6 % |
| Presión | 1012.3 hPa |
| Pluja | 0.0 mm |
| Velocidad viento | 7.5 km/h |
| Dirección viento | SE |
| Radiación solar | 408.4 W/m² |
| Temperatura (ºC) | Humedad (%) | Presión (hPa) | Velocidad viento (km/h) | Precipitación (mm) | Radiación solar (W/m²) | |||||||||||||
|---|---|---|---|---|---|---|---|---|---|---|---|---|---|---|---|---|---|---|
| Hora UTC | Aire | Humedad | Presión | Vel. | Dir. | Vel. Max | Dir. | Intent. máx 5 min. | Rad. Sol. | |||||||||
| 00:05 | 7.0 | 94.4 | 1011.1 | 0.0 | W | 0.0 | W | 0.0 | 0.1 | |||||||||
| 00:10 | 7.1 | 94.9 | 1011.0 | 0.0 | NNE | 0.0 | SW | 0.0 | 0.1 | |||||||||
| 00:15 | 7.0 | 94.6 | 1011.0 | 0.0 | NNE | 0.0 | S | 0.0 | 0.1 | |||||||||
| 00:20 | 6.8 | 94.5 | 1011.0 | 0.0 | NNE | 0.0 | W | 0.0 | 0.1 | |||||||||
| 00:25 | 6.7 | 94.8 | 1010.9 | 0.0 | NNE | 0.0 | NW | 0.0 | 0.1 | |||||||||
| 00:30 | 6.7 | 95.0 | 1010.9 | 0.0 | NNE | 0.0 | NW | 0.0 | 0.1 | |||||||||
| 00:35 | 6.8 | 95.2 | 1010.9 | 0.0 | NNE | 0.0 | SW | 0.0 | 0.1 | |||||||||
| 00:40 | 7.0 | 95.4 | 1010.8 | 0.0 | NNE | 0.0 | S | 0.0 | 0.1 | |||||||||
| 00:45 | 7.1 | 95.3 | 1010.8 | 0.0 | NNE | 0.0 | SW | 0.0 | 0.1 | |||||||||
| 00:50 | 7.2 | 95.0 | 1010.8 | 0.0 | NNE | 0.0 | SSW | 0.0 | 0.1 | |||||||||
| 00:55 | 7.3 | 95.0 | 1010.8 | 0.0 | SSE | 3.4 | SSE | 0.0 | 0.1 | |||||||||
| 01:00 | 7.5 | 94.4 | 1010.7 | 0.1 | SSW | 6.1 | SSW | 0.0 | 0.1 | |||||||||
| 01:05 | 7.5 | 93.7 | 1010.7 | 0.0 | NNE | 0.0 | SW | 0.0 | 0.1 | |||||||||
| 01:10 | 7.5 | 92.9 | 1010.7 | 0.0 | NNE | 0.0 | S | 0.0 | 0.1 | |||||||||
| 01:15 | 7.4 | 92.4 | 1010.7 | 0.0 | NNE | 0.0 | SW | 0.0 | 0.1 | |||||||||
| 01:20 | 7.4 | 92.1 | 1010.7 | 0.0 | NNE | 0.0 | SW | 0.0 | 0.1 | |||||||||
| 01:25 | 7.3 | 91.9 | 1010.7 | 0.0 | NNE | 0.0 | SW | 0.0 | 0.1 | |||||||||
| 01:30 | 7.5 | 92.0 | 1010.6 | 1.1 | SSW | 11.5 | SW | 0.0 | 0.1 | |||||||||
| 01:35 | 7.6 | 91.6 | 1010.6 | 0.0 | SW | 3.4 | SW | 0.0 | 0.1 | |||||||||
| 01:40 | 7.8 | 90.9 | 1010.6 | 0.0 | NNE | 0.0 | S | 0.0 | 0.1 | |||||||||
| 01:45 | 7.7 | 90.0 | 1010.7 | 0.5 | SSW | 6.1 | S | 0.0 | 0.1 | |||||||||
| 01:50 | 7.8 | 90.0 | 1010.6 | 0.0 | NNE | 0.0 | SSW | 0.0 | 0.1 | |||||||||
| 01:55 | 7.7 | 89.4 | 1010.6 | 0.0 | NNE | 0.0 | S | 0.0 | 0.1 | |||||||||
| 02:00 | 7.5 | 89.1 | 1010.5 | 0.0 | NNE | 0.0 | WSW | 0.0 | 0.1 | |||||||||
| 02:05 | 7.6 | 89.4 | 1010.6 | 0.0 | NNE | 0.0 | SSW | 0.0 | 0.1 | |||||||||
| 02:10 | 7.7 | 89.0 | 1010.6 | 0.0 | NNE | 0.0 | SSW | 0.0 | 0.1 | |||||||||
| 02:15 | 7.6 | 88.6 | 1010.6 | 0.6 | SSW | 8.8 | SW | 0.0 | 0.1 | |||||||||
| 02:20 | 7.6 | 88.9 | 1010.6 | 0.0 | NNE | 0.0 | SW | 0.0 | 0.1 | |||||||||
| 02:25 | 7.5 | 89.0 | 1010.6 | 0.0 | NNE | 0.0 | S | 0.0 | 0.1 | |||||||||
| 02:30 | 7.5 | 89.4 | 1010.7 | 0.0 | NNE | 0.0 | S | 0.0 | 0.1 | |||||||||
| 02:35 | 7.4 | 89.7 | 1010.7 | 0.0 | NNE | 0.0 | SW | 0.0 | 0.1 | |||||||||
| 02:40 | 7.3 | 90.0 | 1010.8 | 0.0 | NNE | 0.0 | SSW | 0.0 | 0.1 | |||||||||
| 02:45 | 7.2 | 90.3 | 1010.8 | 0.0 | NNE | 0.0 | S | 0.0 | 0.1 | |||||||||
| 02:50 | 7.0 | 90.3 | 1010.7 | 0.0 | SW | 3.4 | WSW | 0.0 | 0.1 | |||||||||
| 02:55 | 6.8 | 90.5 | 1010.8 | 0.0 | NNE | 0.0 | SW | 0.0 | 0.1 | |||||||||
| 03:00 | 6.5 | 90.7 | 1010.8 | 0.0 | NNE | 0.0 | W | 0.0 | 0.1 | |||||||||
| 03:05 | 6.4 | 91.2 | 1010.8 | 0.0 | NNE | 0.0 | WSW | 0.0 | 0.1 | |||||||||
| 03:10 | 6.2 | 91.9 | 1010.8 | 0.0 | NNE | 0.0 | W | 0.0 | 0.1 | |||||||||
| 03:15 | 6.1 | 92.4 | 1010.8 | 0.0 | NNE | 0.0 | SW | 0.0 | 0.1 | |||||||||
| 03:20 | 6.2 | 93.1 | 1010.7 | 0.0 | NNE | 0.0 | SW | 0.0 | 0.1 | |||||||||
| 03:25 | 6.2 | 93.6 | 1010.8 | 0.0 | SW | 3.4 | SW | 0.0 | 0.1 | |||||||||
| 03:30 | 6.4 | 93.8 | 1010.8 | 0.0 | NNE | 0.0 | W | 0.0 | 0.1 | |||||||||
| 03:35 | 6.5 | 93.7 | 1010.7 | 0.0 | NNE | 0.0 | WNW | 0.0 | 0.1 | |||||||||
| 03:40 | 6.6 | 93.4 | 1010.7 | 0.0 | NNE | 0.0 | SW | 0.0 | 0.1 | |||||||||
| 03:45 | 6.3 | 92.7 | 1010.6 | 0.1 | W | 6.1 | W | 0.0 | 0.1 | |||||||||
| 03:50 | 6.1 | 92.7 | 1010.6 | 0.0 | NNE | 0.0 | WSW | 0.0 | 0.1 | |||||||||
| 03:55 | 6.0 | 93.1 | 1010.6 | 0.5 | WNW | 8.8 | WNW | 0.0 | 0.1 | |||||||||
| 04:00 | 6.2 | 93.8 | 1010.6 | 0.8 | NW | 11.5 | W | 0.0 | 0.1 | |||||||||
| 04:05 | 6.4 | 93.8 | 1010.6 | 2.5 | NW | 11.5 | NNW | 0.0 | 0.1 | |||||||||
| 04:10 | 6.5 | 93.6 | 1010.6 | 1.3 | NW | 14.2 | NW | 0.0 | 0.1 | |||||||||
| 04:15 | 6.4 | 93.2 | 1010.6 | 1.5 | NW | 11.5 | W | 0.0 | 0.1 | |||||||||
| 04:20 | 6.3 | 93.1 | 1010.5 | 3.4 | NNW | 11.5 | NW | 0.0 | 0.2 | |||||||||
| 04:25 | 6.3 | 93.4 | 1010.6 | 0.3 | WNW | 6.1 | WNW | 0.0 | 0.4 | |||||||||
| 04:30 | 6.4 | 93.5 | 1010.7 | 0.2 | WSW | 6.1 | WSW | 0.0 | 1.1 | |||||||||
| 04:35 | 6.2 | 93.3 | 1010.8 | 0.0 | WSW | 3.4 | WSW | 0.0 | 2.1 | |||||||||
| 04:40 | 6.2 | 93.5 | 1010.8 | 0.0 | W | 3.4 | WNW | 0.0 | 3.5 | |||||||||
| 04:45 | 6.2 | 93.3 | 1010.8 | 0.0 | NNE | 0.0 | NW | 0.0 | 5.1 | |||||||||
| 04:50 | 6.2 | 93.6 | 1010.9 | 0.0 | NNE | 0.0 | WNW | 0.0 | 7.1 | |||||||||
| 04:55 | 6.2 | 93.7 | 1010.9 | 0.2 | WNW | 8.8 | WNW | 0.0 | 9.4 | |||||||||
| 05:00 | 6.2 | 93.6 | 1010.9 | 1.1 | NW | 11.5 | NNW | 0.0 | 12.1 | |||||||||
| 05:05 | 6.3 | 93.5 | 1010.9 | 0.6 | WNW | 8.8 | NNW | 0.0 | 15.1 | |||||||||
| 05:10 | 6.4 | 93.4 | 1010.9 | 2.4 | WNW | 11.5 | NNW | 0.0 | 44.3 | |||||||||
| 05:15 | 6.5 | 93.3 | 1010.9 | 0.4 | WNW | 8.8 | WNW | 0.0 | 74.2 | |||||||||
| 05:20 | 6.6 | 93.1 | 1011.0 | 1.3 | WNW | 11.5 | W | 0.0 | 86.4 | |||||||||
| 05:25 | 6.9 | 92.4 | 1011.0 | 0.2 | W | 8.8 | W | 0.0 | 91.8 | |||||||||
| 05:30 | 7.5 | 90.9 | 1011.1 | 0.0 | NNE | 0.0 | SSW | 0.0 | 89.7 | |||||||||
| 05:35 | 7.7 | 89.6 | 1011.2 | 0.9 | WNW | 8.8 | W | 0.0 | 126.4 | |||||||||
| 05:40 | 8.0 | 89.0 | 1011.2 | 0.6 | W | 6.1 | WNW | 0.0 | 141.1 | |||||||||
| 05:45 | 8.6 | 88.6 | 1011.3 | 0.6 | W | 6.1 | W | 0.0 | 155.2 | |||||||||
| 05:50 | 9.2 | 86.3 | 1011.3 | 0.5 | WNW | 6.1 | WNW | 0.0 | 169.6 | |||||||||
| 05:55 | 9.2 | 84.0 | 1011.4 | 1.0 | NNW | 11.5 | NW | 0.0 | 185.3 | |||||||||
| 06:00 | 9.3 | 83.3 | 1011.5 | 1.0 | NW | 11.5 | NNW | 0.0 | 201.3 | |||||||||
| 06:05 | 9.2 | 83.9 | 1011.5 | 5.7 | NW | 14.2 | NNW | 0.0 | 216.8 | |||||||||
| 06:10 | 9.0 | 84.7 | 1011.5 | 6.2 | NW | 14.2 | NNW | 0.0 | 232.5 | |||||||||
| 06:15 | 8.9 | 85.3 | 1011.6 | 8.7 | NW | 16.9 | NW | 0.0 | 248.3 | |||||||||
| 06:20 | 8.8 | 85.8 | 1011.6 | 9.3 | NW | 16.9 | NW | 0.0 | 264.7 | |||||||||
| 06:25 | 9.1 | 85.7 | 1011.5 | 4.5 | WNW | 11.5 | NW | 0.0 | 280.8 | |||||||||
| 06:30 | 9.9 | 85.1 | 1011.6 | 2.6 | W | 11.5 | WSW | 0.0 | 297.1 | |||||||||
| 06:35 | 10.6 | 82.4 | 1011.5 | 1.0 | NW | 8.8 | NNW | 0.0 | 313.1 | |||||||||
| 06:40 | 10.7 | 80.5 | 1011.5 | 1.8 | NW | 8.8 | W | 0.0 | 329.4 | |||||||||
| 06:45 | 11.0 | 79.2 | 1011.6 | 0.0 | NNE | 0.0 | WNW | 0.0 | 345.9 | |||||||||
| 06:50 | 11.7 | 77.8 | 1011.5 | 0.0 | WSW | 3.4 | SW | 0.0 | 362.5 | |||||||||
| 06:55 | 11.9 | 75.1 | 1011.6 | 0.9 | NW | 8.8 | NW | 0.0 | 378.6 | |||||||||
| 07:00 | 12.2 | 75.9 | 1011.6 | 0.0 | NNE | 0.0 | N | 0.0 | 395.0 | |||||||||
| 07:05 | 12.9 | 71.7 | 1011.6 | 0.0 | NNE | 0.0 | NW | 0.0 | 410.9 | |||||||||
| 07:10 | 13.4 | 68.5 | 1011.6 | 0.0 | NNE | 0.0 | WSW | 0.0 | 427.0 | |||||||||
| 07:15 | 13.5 | 65.6 | 1011.7 | 0.4 | SSE | 6.1 | S | 0.0 | 442.7 | |||||||||
| 07:20 | 13.2 | 66.5 | 1011.7 | 4.7 | SSE | 8.8 | S | 0.0 | 457.8 | |||||||||
| 07:25 | 13.1 | 63.3 | 1011.8 | 3.5 | ESE | 11.5 | ESE | 0.0 | 476.3 | |||||||||
| 07:30 | 12.7 | 64.1 | 1011.9 | 3.6 | SE | 8.8 | ESE | 0.0 | 487.1 | |||||||||
| 07:35 | 12.9 | 63.7 | 1011.9 | 2.3 | S | 11.5 | SSE | 0.0 | 510.1 | |||||||||
| 07:40 | 12.9 | 63.4 | 1011.9 | 0.9 | ESE | 6.1 | ESE | 0.0 | 523.1 | |||||||||
| 07:45 | 12.9 | 62.9 | 1012.0 | 5.2 | SE | 8.8 | ESE | 0.0 | 541.8 | |||||||||
| 07:50 | 12.9 | 64.3 | 1012.0 | 3.3 | SE | 8.8 | SE | 0.0 | 558.7 | |||||||||
| 07:55 | 13.1 | 63.5 | 1012.0 | 1.3 | ESE | 8.8 | SSE | 0.0 | 574.7 | |||||||||
| 08:00 | 13.7 | 63.4 | 1012.0 | 0.8 | NE | 8.8 | NE | 0.0 | 589.8 | |||||||||
| 08:05 | 14.0 | 66.9 | 1012.1 | 0.2 | NE | 6.1 | ENE | 0.0 | 616.0 | |||||||||
| 08:10 | 13.7 | 66.4 | 1012.1 | 4.8 | SE | 11.5 | SE | 0.0 | 638.3 | |||||||||
| 08:15 | 13.3 | 66.9 | 1012.1 | 6.3 | SE | 14.2 | SE | 0.0 | 585.9 | |||||||||
| 08:20 | 12.5 | 75.0 | 1012.1 | 8.9 | SSE | 16.9 | SE | 0.0 | 239.8 | |||||||||
| 08:25 | 12.2 | 77.6 | 1012.1 | 5.8 | SSE | 11.5 | SE | 0.0 | 697.3 | |||||||||
| 08:30 | 12.9 | 76.9 | 1012.3 | 7.6 | SSE | 14.2 | SSE | 0.0 | 779.6 | |||||||||
| 08:35 | 12.8 | 78.0 | 1012.3 | 6.3 | SE | 11.5 | SE | 0.0 | 493.5 | |||||||||
| 08:40 | 13.0 | 76.7 | 1012.3 | 7.0 | SSE | 16.9 | ESE | 0.0 | 600.5 | |||||||||
| 08:45 | 12.5 | 77.0 | 1012.3 | 9.2 | SSE | 19.6 | SSE | 0.0 | 346.1 | |||||||||
| 08:50 | 12.1 | 78.4 | 1012.3 | 9.5 | SSE | 19.6 | S | 0.0 | 162.0 | |||||||||
| 08:55 | 12.0 | 79.6 | 1012.3 | 6.8 | SSE | 16.9 | S | 0.0 | 537.9 | |||||||||
| 09:00 | 12.9 | 77.8 | 1012.3 | 9.1 | S | 16.9 | SSE | 0.0 | 784.7 | |||||||||
| 09:05 | 13.1 | 73.9 | 1012.4 | 10.4 | SSE | 22.3 | SE | 0.0 | 304.3 | |||||||||
| 09:10 | 12.5 | 77.5 | 1012.4 | 9.6 | SSE | 16.9 | SSE | 0.0 | 683.7 | |||||||||
| 09:15 | 12.7 | 75.7 | 1012.5 | 9.6 | SE | 19.6 | SE | 0.0 | 629.1 | |||||||||
| 09:20 | 12.3 | 76.6 | 1012.5 | 9.9 | SE | 19.6 | SE | 0.0 | 499.8 | |||||||||
| 09:25 | 12.6 | 78.5 | 1012.5 | 1.6 | SSE | 16.9 | SE | 0.0 | 347.2 | |||||||||
| 09:30 | 12.8 | 76.5 | 1012.5 | 8.9 | SE | 19.6 | ESE | 0.0 | 648.2 | |||||||||
| 09:35 | 13.1 | 74.6 | 1012.6 | 11.2 | SSE | 19.6 | SSE | 0.0 | 889.0 | |||||||||
| 09:40 | 13.5 | 71.8 | 1012.6 | 12.0 | SSE | 22.3 | SE | 0.0 | 911.0 | |||||||||
| 09:45 | 13.6 | 71.9 | 1012.6 | 9.1 | SSE | 19.6 | SSE | 0.0 | 509.7 | |||||||||
| 09:50 | 13.7 | 71.4 | 1012.5 | 9.5 | SSE | 22.3 | SE | 0.0 | 476.9 | |||||||||
| 09:55 | 13.5 | 71.2 | 1012.6 | 11.6 | SE | 19.6 | SE | 0.0 | 896.0 | |||||||||
| 10:00 | 13.6 | 68.0 | 1012.6 | 7.6 | SSE | 16.9 | SSE | 0.0 | 332.9 | |||||||||
| 10:05 | 13.1 | 67.3 | 1012.5 | 8.0 | SE | 16.9 | SSE | 0.0 | 256.7 | |||||||||
| 10:10 | 13.0 | 70.0 | 1012.5 | 4.6 | SE | 14.2 | S | 0.0 | 389.0 | |||||||||
| 10:15 | 13.2 | 72.4 | 1012.5 | 9.1 | SSE | 19.6 | SSE | 0.0 | 231.9 | |||||||||
| 10:20 | 13.1 | 73.7 | 1012.4 | 10.3 | SSE | 27.7 | SSE | 0.0 | 304.4 | |||||||||
| 10:25 | 13.2 | 76.4 | 1012.4 | 9.5 | SSE | 22.3 | S | 0.0 | 705.2 | |||||||||
| 10:30 | 13.7 | 75.8 | 1012.4 | 7.3 | ESE | 19.6 | E | 0.0 | 518.0 | |||||||||
| 10:35 | 13.5 | 75.4 | 1012.4 | 7.4 | SSE | 14.2 | SSE | 0.0 | 187.6 | |||||||||
| 10:40 | 12.8 | 77.6 | 1012.4 | 5.9 | SE | 14.2 | SSE | 0.0 | 112.5 | |||||||||
| 10:45 | 12.3 | 82.1 | 1012.4 | 3.2 | E | 14.2 | E | 0.0 | 213.3 | |||||||||
| 10:50 | 12.1 | 83.7 | 1012.4 | 8.6 | SE | 22.3 | ESE | 0.0 | 148.6 | |||||||||
| 10:55 | 11.9 | 84.4 | 1012.3 | 0.7 | SSE | 8.8 | S | 0.0 | 117.5 | |||||||||
| 11:00 | 11.8 | 83.8 | 1012.3 | 3.0 | ESE | 16.9 | E | 0.0 | 76.2 | |||||||||
| 11:05 | 11.9 | 83.6 | 1012.3 | 7.5 | SE | 19.6 | E | 0.0 | 408.4 | |||||||||
| Máxima | 14.0 | 95.4 | 1012.6 | 12.0 | SSE | 27.7 | SSE | 0.0 | 911.0 | |||||||||
| Mínima | 6.0 | 62.9 | 1010.5 | |||||||||||||||
| Total | 0.0 | |||||||||||||||||